Tracking 19794 objects as of 22-Jul-2019
HD Live streaming from Space Station
objects crossing your sky now

FENGYUN 1C DEB

Track FENGYUN 1C DEB now!
10-day predictions


NORAD ID: 35162
Int'l Code: 1999-025DMS
Perigee: 661.1 km
Apogee: 814.3 km
Inclination: 96.7 °
Period: 99.4 minutes
Semi major axis: 7108 km
RCS: 0.0069 m2 (small)
Launch date: May 10, 1999
Source: People's Republic of China (PRC)
Launch site: Taiyaun Space Center, China (TSC)

Note: This is SATELLITE DEBRIS
aabbcc
Your satellite tracking list
Your tracking list is empty




NASA's NSSDC Master Catalog

Two Line Element Set (TLE):
1 35162U 99025DMS 19199.08427659  .00001065  00000-0  27173-3 0  9997
2 35162  96.7459 298.9293 0107795  50.9030 310.1694 14.48502523614220
Source of the keplerian elements: AFSPC